Weather History for Hanford, WA

Change the Weather History Date:

Tuesday, November 20, 2012

  Actual Average Record
Temperature  
Mean Temperature 52 °F -  
Max Temperature 57 °F 45 °F 61 °F (1997)
Min Temperature 46 °F 31 °F 21 °F (1996)
Degree Days  
Heating Degree Days 12    
Growing Degree Days 2 (Base 50)    
Moisture  
Dew Point 43 °F    
Average Humidity 72    
Maximum Humidity 86    
Minimum Humidity 56    
Precipitation  
Precipitation 0.00 in - - ()
Sea Level Pressure  
Sea Level Pressure 29.70 in    
Wind  
Wind Speed 17 mph (SSW)    
Max Wind Speed 24 mph    
Max Gust Speed 32 mph    
Visibility 15 miles    
Events Rain    
Averages and records for this station are not official NWS values.
T = Trace of Precipitation, MM = Missing Value Source: NWS Daily Summary

Daily Weather History Graph

Daily Weather History Graph

Search for Another Location

Airport:

Trip Planner

Search our weather history database for the weather conditions in past years. The results will help you decide how hot, cold, wet, or windy it might be!

Date:

Astronomy

Nov. 20, 2012 Rise Set
Actual Time 7:08 AM PST 4:19 PM PST
Civil Twilight 6:34 AM PST 4:52 PM PST
Nautical Twilight 5:57 AM PST 5:30 PM PST
Astronomical Twilight 5:21 AM PST 6:05 PM PST
Moon 12:32 PM PST (11/20) No Moon Set
Length of Visible Light 10h 18m
Length of Day
9h 11m
First Quarter, 52% of the Moon is Illuminated
Nov 20
First Quarter
Nov 28
Full
Dec 6
Last Quarter
Dec 13
New
Dec 19
First Quarter

Hourly Weather History & Observations

Time (PST) Temp. Windchill Dew Point Humidity Pressure Visibility Wind Dir Wind Speed Gust Speed Precip Events Conditions
12:50 AM 52.3 °F - 44.2 °F 74% 29.71 in 15.0 mi SSW 20.7 mph 29.9 mph N/A   Overcast
1:50 AM 51.4 °F - 44.4 °F 77% 29.73 in 15.0 mi SW 19.6 mph - N/A   Overcast
2:50 AM 51.4 °F - 44.2 °F 76% 29.73 in 15.0 mi SW 13.8 mph - N/A   Overcast
3:50 AM 54.0 °F - 44.2 °F 70% 29.76 in 15.0 mi South 19.6 mph - N/A   Overcast
4:50 AM 53.8 °F - 44.2 °F 70% 29.75 in 15.0 mi South 20.7 mph - N/A   Overcast
5:50 AM 54.0 °F - 43.7 °F 68% 29.71 in 15.0 mi South 24.2 mph 32.2 mph N/A   Overcast
6:50 AM 50.9 °F - 46.0 °F 83% 29.73 in 15.0 mi South 11.5 mph - N/A Rain Light Rain
7:50 AM 52.0 °F - 43.5 °F 73% 29.72 in 15.0 mi South 20.7 mph - N/A Rain Light Rain
8:50 AM 52.5 °F - 43.7 °F 72% 29.69 in 15.0 mi South 16.1 mph 25.3 mph 0.00 in Rain Light Rain
9:50 AM 52.3 °F - 45.5 °F 78% 29.67 in 15.0 mi NE 6.9 mph - 0.00 in   Overcast
10:50 AM 50.7 °F - 46.8 °F 86% 29.67 in 15.0 mi ESE 9.2 mph - 0.00 in Rain Light Rain
11:50 AM 50.9 °F - 46.9 °F 86% 29.65 in 15.0 mi East 16.1 mph 27.6 mph 0.00 in   Mostly Cloudy
12:50 PM 55.8 °F - 48.9 °F 78% 29.65 in 15.0 mi ENE 10.4 mph - N/A   Partly Cloudy
1:50 PM 57.9 °F - 46.6 °F 66% 29.65 in 15.0 mi South 18.4 mph 31.1 mph 0.00 in Rain Light Rain Showers
2:50 PM 56.5 °F - 45.1 °F 66% 29.65 in 15.0 mi South 16.1 mph - N/A   Mostly Cloudy
3:50 PM 54.3 °F - 44.6 °F 70% 29.68 in 15.0 mi SSW 13.8 mph - N/A   Mostly Cloudy
4:50 PM 52.9 °F - 37.6 °F 56% 29.69 in 15.0 mi SW 16.1 mph - N/A   Scattered Clouds
5:50 PM 50.5 °F - 37.4 °F 61% 29.71 in 15.0 mi WSW 11.5 mph - N/A   Mostly Cloudy
6:50 PM 50.0 °F - 37.6 °F 62% 29.71 in 15.0 mi WSW 18.4 mph - N/A   Partly Cloudy
10:50 PM 48.0 °F - 37.0 °F 66% 29.69 in 15.0 mi West 5.8 mph - 0.00 in Rain Light Rain
11:50 PM 46.0 °F 41.9 °F 39.2 °F 77% 29.69 in 15.0 mi West 8.1 mph - 0.00 in Rain Light Rain